This is the latest recevied weather packets stored in our database for station/object KB1QVF. If no packets are shown the sender has not sent any weather packets the latest 10 day(s).
| Time | Temp. | Humidity | Pressure | Rain* | Wind** | Luminosity | Snow |
|---|---|---|---|---|---|---|---|
| 1777683657 | 8.89° C | 56% | 1013.6 hPa | 0 mm | - | 0 W/m² | - |
| 1777683355 | 8.89° C | 57% | 1013.4 hPa | 0 mm | - | 0 W/m² | - |
| 1777683053 | 9.44° C | 56% | 1013.3 hPa | 0 mm | - | 0 W/m² | - |
| 1777682748 | 9.44° C | 53% | 1013.2 hPa | 0 mm | - | 0 W/m² | - |
| 1777682445 | 9.44° C | 53% | 1013 hPa | 0 mm | - | 0 W/m² | - |
| 1777682143 | 9.44° C | 52% | 1013.2 hPa | 0 mm | - | 0 W/m² | - |
| 1777681840 | 10° C | 51% | 1012.9 hPa | 0 mm | - | 0 W/m² | - |
| 1777681536 | 10° C | 49% | 1012.8 hPa | 0 mm | - | 0 W/m² | - |
| 1777681233 | 10° C | 50% | 1012.8 hPa | 0 mm | - | 0 W/m² | - |
| 1777680931 | 10.56° C | 49% | 1012.8 hPa | 0 mm | - | 0 W/m² | - |
| 1777680628 | 10.56° C | 48% | 1012.8 hPa | 0 mm | - | 0 W/m² | - |
| 1777680326 | 10.56° C | 47% | 1012.5 hPa | 0 mm | - | 0 W/m² | - |
| 1777680023 | 11.11° C | 49% | 1012.5 hPa | 0 mm | - | 0 W/m² | - |
| 1777679719 | 11.11° C | 45% | 1012.4 hPa | 0 mm | - | 1 W/m² | - |
| 1777679414 | 11.67° C | 44% | 1012.3 hPa | 0 mm | - | 2 W/m² | - |
| 1777679110 | 12.22° C | 43% | 1012.3 hPa | 0 mm | - | 4 W/m² | - |
| 1777678809 | 12.78° C | 42% | 1012.4 hPa | 0 mm | - | 6 W/m² | - |
| 1777678507 | 13.33° C | 39% | 1012.3 hPa | 0 mm | - | 8 W/m² | - |
| 1777678202 | 13.33° C | 38% | 1012.1 hPa | 0 mm | - | 11 W/m² | - |
| 1777677899 | 13.89° C | 39% | 1012 hPa | 0 mm | - | 14 W/m² | - |
| 1777677596 | 13.89° C | 37% | 1012 hPa | 0 mm | - | 17 W/m² | - |
| 1777677295 | 14.44° C | 35% | 1012 hPa | 0 mm | - | 20 W/m² | - |
| 1777676992 | 14.44° C | 34% | 1011.9 hPa | 0 mm | - | 23 W/m² | - |
| 1777676691 | 15° C | 34% | 1011.6 hPa | 0 mm | - | 25 W/m² | - |
| 1777676388 | 15.56° C | 31% | 1011.7 hPa | 0 mm | - | 37 W/m² | - |
* Rain latest hour (hover to see other rain measurements)
** Current wind speed in m/s (hover to see current wind gust speed)